Location: Central Falls
(41.8900°N, 71.3929°W)
Time: 16:32:37
(UTC+00:00)

Vanguard 1 - Pass Details

Date: 03 December 2023
Orbit: 653 x 3826 km, 34.3° (Epoch: 24 February)

Event Time Altitude Azimuth Distance (km) Brightness Sun altitude
Rises 05:39:19 0° 284° (WNW) 7,879 14.6 -66.0°
Enters shadow 05:42:31 - 281° (W) 7,375 14.4 -65.7°
Reaches altitude 10° 05:45:23 10° 277° (W) 6,932 - -65.3°
Maximum altitude 06:04:24 35° 223° (SW) 4,683 - -62.8°
Drops below altitude 10° 06:19:00 10° 165° (SSE) 5,302 - -60.6°
Sets 06:22:56 0° 156° (SSE) 5,903 - -60.0°
